{"data":{"norad_id":63816,"intl_designator":"2025-092N","name":"STARLINK-34048","alt_names":[],"object_type":"PAYLOAD","status":"ACTIVE","operator":null,"country":"US","launch_date":"2025-05-04","launch_site_code":"AFETR","launch_vehicle":null,"mission":null,"orbit_class":"UNKNOWN","rcs_meters":null,"size_class":null,"mass_kg":null,"dimensions":null,"purposes":["comms"],"wikipedia_slug":null,"has_3d_model":false,"image_url":null,"decayed_at":null,"tle_current":{"epoch":"2026-05-25T03:27:32.386176Z","epoch_age_seconds":52845,"freshness":"FRESH","line1":"1 63816U 25092N   26145.14412484  .00013618  00000+0  50335-3 0  9995","line2":"2 63816  43.0007 101.0920 0001394 272.1856  87.8836 15.27589587 60352","mean_motion":15.27589587,"eccentricity":0.0001394,"inclination_deg":43.0007,"raan_deg":101.092,"arg_perigee_deg":272.1856,"mean_anomaly_deg":87.8836,"bstar":0.00050335,"rev_number":6035,"period_min":94.266157104932,"perigee_km":482.06394392282,"apogee_km":483.97683460295,"semimajor_km":6861.1573892629,"source":"CELESTRAK","updated_at":"2026-05-25T13:38:20.141846Z"}}}